FENGYUN 1C DEB, 31692

Orbit data source: Space-Track

FENGYUN 1C DEB, 31692 is space debris in SSO originally from a launch on Mon, 10 May 1999 UTC launched from the Taiyaun Space Center, China (TSC). Fengyun 1C debris stems from the Chinese weather satellite Fengyun-1C, which was intentionally destroyed by a Chinese anti-satellite missile in 2007. This event dramatically increased the amount of space debris, with thousands of trackable fragments posing hazards to satellites and human spaceflight. The Fengyun 1C debris cloud has become a focal point in discussions about space sustainability and the need for international regulations to prevent the creation of new debris.

Loading next visibility...
Identifier
31692, 1999-025CDA
Orbit
SSO
Country
Flag of CNCN / PRC
Related business
Manufacturer
Unknown
Mission
Spacecraft
Bus & Motor
Unknown
Mass
Unknown
Launch date (UTC)
1999-05-10 (27 years ago)
Launch vehicle
Unknown
Launch site
Taiyaun Space Center, China (TSC)
Object type
Payload
Rocket body
Debris
Shape & HBR
Unknown shape, 0.1 m
Radar Cross Section
Small (<0.1 m²)

Expand to show TLE details & history
Last TLE update: 2 weeks ago

TLE from 2 weeks ago
0 FENGYUN 1C DEB
1 31692U 99025CDA 26151.47367448  .00007267  00000-0  32948-2 0  9994
2 31692  99.1760 159.0866 0083088 322.6151  36.9261 14.20385138606179
Epoch: 2026-05-31T11:22Z
TLE epoch observation values (Epoch: 2026-05-31T11:22:05.475Z)
Latitude
0.00001°
Longitude
99.58895°
Altitude
779.284 km
Speed
7.489 km/s
True Right ascension
10h 36m 20s
True Declination
0° 00' 00"
Sunlit
Object was in daylight at epoch
Visualization orbit readout
Latitude
Unknown
Longitude
Unknown
Altitude
Unknown
Speed
Unknown
Apparent Right ascension
Unknown
Apparent Declination
Unknown
Sunlit
N/A
Visualization observer readout
Local Sidereal Time
07:58:26
Azimuth
Unknown
Elevation
Unknown
Doppler factor
Unknown
Orbital elements
Apogee altitude
881.049 km
Perigee altitude
761.413 km
Semi-major axis
7,199.368 km
Eccentricity
0.00831
Inclination
99.176°
RAAN
159.0866°
Arg. of periapsis
322.6151°
True anomaly
37.5029°
Mean anomaly
36.9261°
Eccentric anomaly
37.21402°
Mean motion
3.55305 °/min
Orbital period
101.32 mins
BSTAR
0.0032948
Loading maneuver chart data...
Computing Atmospheric mass density...

Documentation

Showing up to 5 results
|